Temp
7 7 7 7 6 6 6 6 6 6 6 6 6 6 6 6 6 6 6 6 6 6 6 6 6 6 6 6 6 6 6 6 6 6 6 6 5 5 5 5 5 5 5
7 7 7 6 6 6 6 6 6 6 6 6 6 6 6 6 6 6 6 6 5 5 5 5 6 5 5 5 5 5 6 6 6 6 6 5 5 5 5 5 4 4 4
7 7 6 6 6 5 5 5 5 5 6 6 6 6 6 6 6 6 5 5 5 5 5 5 5 5 5 5 5 5 5 5 5 5 5 4 5 4 4 4 4 4 4
6 6 6 6 5 5 5 5 5 5 6 6 6 6 6 6 5 5 5 5 5 5 5 5 5 5 5 5 5 5 5 5 4 5 5 5 4 4 4 4 4 4 4
5 6 6 5 5 5 5 5 6 6 5 6 6 5 5 5 5 5 5 5 5 5 4 4 5 5 5 5 5 5 5 5 4 4 4 4 4 4 4 3 3 4 4
5 5 5 5 5 5 5 5 5 5 5 5 5 5 5 5 5 5 5 4 4 4 4 4 4 4 4 4 4 4 4 4 4 4 3 3 3 3 3 3 3 3 3
5 5 5 5 5 5 5 5 5 5 5 5 5 5 5 5 4 4 4 4 4 4 4 3 3 3 3 3 3 3 3 3 3 3 3 3 3 3 3 3 3 3 3
5 5 5 5 5 5 5 5 5 5 5 5 5 4 4 4 4 4 4 4 4 3 3 3 3 3 3 3 3 3 3 3 3 3 2 3 2 2 2 3 3 3 3
4 5 5 5 5 5 5 5 5 5 5 4 4 4 4 4 4 3 3 3 3 3 3 3 2 2 2 2 2 2 2 2 2 2 2 2 2 2 2 2 2 2 2
4 4 5 5 5 5 5 5 5 4 4 4 4 4 4 3 3 3 3 3 3 3 3 2 2 2 1 1 1 1 1 2 1 1 1 2 2 2 2 2 2 1 1
5 5 5 5 5 5 5 5 4 4 4 3 3 3 3 3 3 3 3 3 3 2 2 2 2 2 1 1 1 1 1 1 1 2 1 1 2 2 2 2 2 2 2
5 5 5 5 5 4 4 4 4 3 3 3 3 3 3 2 2 2 2 2 2 2 1 1 1 1 1 1 1 1 1 1 2 2 2 2 2 2 2 2 2 2 2
5 4 4 4 4 4 4 4 3 3 3 3 2 2 2 2 2 2 1 1 1 1 1 1 1 1 1 1 1 1 1 1 2 2 2 2 2 2 2 2 2 2 2
4 4 4 4 4 4 3 3 3 2 2 2 2 2 2 1 1 1 1 1 0 0 0 0 1 0 1 1 1 1 1 2 2 2 2 2 2 2 2 2 2 2 2
4 3 3 4 3 3 3 3 2 2 2 2 1 1 1 1 1 1 0 0 0 -0 -0 -0 -1 -1 -0 -0 0 0 1 1 1 1 1 2 1 2 2 2 2 2 2
4 3 3 3 3 3 3 2 2 2 1 2 1 0 -0 -0 0 -0 -0 -0 -0 -1 -1 -1 -0 -1 -1 -0 -0 0 0 0 0 1 0 0 1 1 1 1 2 2 2
3 3 3 3 3 3 3 2 1 0 1 0 1 -0 1 -0 -0 -0 -1 -0 -0 -0 -1 -1 -0 -1 -1 -1 -1 -1 -1 -1 -0 -0 -1 -1 -0 0 -0 -0 -0 0 0
4 3 3 3 3 3 2 1 0 2 1 2 1 0 0 -0 -0 -0 -1 -0 -0 -1 -1 -1 -1 -1 -1 -1 -1 -1 -1 -1 -1 -1 -0 -0 -0 -1 -0 0 -1 -1 -0
4 3 3 3 3 3 0 0 -0 0 0 1 0 0 -0 -1 -0 -1 -0 -0 -1 -1 -1 -1 -1 -2 -2 -2 -1 -1 -1 -1 -1 -1 -1 -1 -1 -2 -2 -1 -1 -2 -1
4 4 3 3 2 2 1 0 2 1 1 1 1 0 -1 -1 -1 -0 -1 -1 -1 -2 -2 -2 -2 -2 -2 -2 -1 -2 -1 -1 -2 -2 -2 -2 -3 -2 -3 -3 -3 -3 -3
4 4 3 2 2 1 2 1 1 1 1 0 -0 -1 -1 -1 -1 -1 -2 -2 -2 -2 -2 -2 -2 -2 -3 -2 -2 -3 -3 -3 -3 -3 -3 -3 -3 -3 -4 -4 -5 -5 -5
4 4 3 3 2 2 1 1 1 0 -0 -1 -1 -1 -1 -1 -1 -1 -2 -2 -2 -3 -3 -3 -3 -3 -4 -4 -4 -4 -5 -6 -8 -9 -7 -7 -7 -7 -7 -8 -8 -8 -8
4 3 3 2 2 1 1 0 -0 -1 -1 -1 -2 -2 -2 -2 -2 -2 -3 -3 -3 -4 -4 -4 -4 -5 -5 -6 -6 -6 -7 -9 -8 -9 -10 -11 -10 -9 -9 -9 -9 -9 -9
4 3 2 2 1 1 -0 -1 -1 -1 -2 -2 -2 -2 -2 -2 -3 -3 -3 -4 -4 -5 -5 -5 -5 -5 -6 -6 -7 -8 -9 -10 -11 -12 -13 -13 -13 -11 -10 -10 -10 -10 -10
3 2 2 1 1 0 -0 -1 -1 -2 -2 -2 -2 -2 -3 -3 -3 -4 -4 -5 -5 -5 -5 -6 -6 -7 -7 -8 -9 -10 -12 -12 -13 -14 -14 -14 -14 -14 -14 -11 -11 -11 -11
2 2 1 1 1 0 -0 -1 -2 -2 -3 -3 -3 -3 -3 -4 -4 -4 -4 -5 -5 -6 -7 -7 -8 -9 -10 -11 -11 -12 -14 -14 -14 -15 -15 -15 -14 -12 -15 -14 -15 -14 -13
Height
3175 3177 3180 3183 3185 3188 3191 3192 3193 3193 3193 3193 3193 3192 3192 3191 3190 3189 3187 3187 3186 3185 3184 3182 3182 3181 3180 3179 3178 3177 3176 3174 3173 3171 3169 3168 3167 3166 3167 3166 3166 3165 3165
3174 3177 3180 3182 3186 3189 3190 3192 3192 3193 3193 3193 3193 3192 3191 3190 3189 3188 3187 3186 3185 3184 3183 3183 3182 3181 3180 3179 3177 3176 3176 3174 3172 3170 3168 3168 3166 3166 3166 3165 3164 3164 3164
3175 3178 3182 3183 3186 3188 3190 3191 3191 3192 3192 3192 3191 3190 3189 3189 3189 3188 3187 3186 3186 3185 3184 3182 3182 3180 3179 3178 3177 3176 3175 3173 3172 3170 3168 3167 3164 3165 3165 3163 3163 3163 3163
3176 3181 3182 3183 3185 3188 3189 3190 3190 3191 3192 3191 3191 3190 3190 3189 3189 3188 3188 3187 3186 3185 3183 3182 3182 3181 3180 3178 3177 3175 3173 3172 3171 3170 3167 3166 3164 3164 3163 3162 3162 3161 3161
3172 3179 3181 3183 3185 3188 3189 3190 3190 3191 3191 3191 3190 3190 3190 3190 3190 3189 3188 3187 3186 3185 3184 3182 3181 3180 3179 3177 3176 3174 3173 3171 3170 3169 3167 3166 3164 3163 3162 3162 3161 3160 3159
3173 3176 3181 3183 3185 3188 3188 3190 3190 3191 3191 3190 3191 3192 3191 3191 3190 3189 3188 3188 3186 3185 3184 3182 3180 3179 3178 3176 3175 3174 3171 3172 3169 3167 3165 3164 3162 3161 3161 3160 3159 3158 3157
3171 3176 3180 3181 3185 3187 3188 3189 3190 3190 3191 3191 3192 3192 3192 3191 3190 3189 3188 3187 3186 3184 3183 3182 3180 3179 3178 3175 3174 3172 3172 3171 3168 3166 3165 3163 3162 3161 3159 3159 3158 3157 3156
3172 3176 3179 3182 3185 3187 3188 3189 3189 3190 3192 3192 3192 3192 3192 3191 3190 3189 3189 3187 3186 3183 3182 3180 3178 3178 3175 3174 3174 3171 3170 3170 3168 3165 3163 3161 3160 3159 3158 3156 3156 3155 3154
3171 3176 3179 3181 3184 3187 3188 3188 3189 3190 3191 3192 3192 3192 3192 3191 3190 3189 3187 3187 3185 3183 3182 3180 3178 3176 3174 3172 3171 3170 3168 3168 3167 3165 3163 3161 3159 3157 3155 3154 3152 3153 3153
3172 3176 3179 3182 3184 3186 3187 3187 3189 3190 3191 3192 3192 3192 3191 3191 3190 3188 3188 3186 3184 3182 3181 3180 3178 3176 3173 3170 3169 3168 3166 3166 3165 3163 3161 3160 3158 3156 3154 3152 3150 3148 3148
3174 3177 3179 3181 3183 3185 3185 3187 3188 3190 3190 3191 3192 3192 3191 3191 3190 3188 3186 3184 3183 3182 3180 3178 3177 3175 3171 3168 3167 3166 3164 3163 3162 3161 3159 3157 3155 3153 3152 3150 3148 3146 3145
3175 3177 3179 3181 3182 3183 3184 3187 3188 3189 3189 3190 3190 3190 3189 3189 3187 3186 3184 3183 3181 3180 3178 3176 3174 3172 3169 3165 3163 3162 3161 3159 3157 3156 3153 3152 3151 3149 3148 3146 3144 3143 3141
3176 3177 3179 3180 3181 3182 3184 3185 3186 3188 3188 3188 3189 3188 3187 3187 3186 3184 3182 3181 3177 3177 3174 3173 3170 3167 3164 3162 3160 3158 3157 3155 3153 3151 3148 3147 3146 3144 3142 3140 3139 3137 3136
3176 3177 3178 3179 3180 3181 3182 3184 3184 3186 3186 3186 3186 3185 3185 3184 3184 3182 3179 3177 3175 3173 3171 3169 3167 3164 3160 3157 3155 3153 3151 3150 3148 3146 3142 3143 3141 3139 3136 3134 3133 3131 3129
3176 3177 3178 3179 3180 3182 3181 3183 3184 3184 3185 3185 3185 3183 3182 3182 3180 3178 3176 3174 3172 3169 3167 3164 3162 3158 3155 3152 3149 3147 3144 3142 3140 3139 3136 3133 3133 3131 3130 3128 3126 3124 3123
3175 3176 3177 3180 3180 3182 3182 3183 3182 3182 3183 3183 3181 3178 3175 3178 3177 3175 3172 3170 3168 3165 3162 3158 3156 3152 3149 3146 3143 3139 3136 3133 3131 3129 3127 3123 3122 3121 3121 3120 3118 3117 3115
3175 3176 3177 3179 3180 3181 3181 3180 3180 3179 3180 3179 3177 3174 3174 3174 3171 3170 3168 3166 3163 3159 3156 3153 3149 3146 3142 3139 3135 3132 3128 3123 3119 3118 3116 3115 3110 3108 3108 3107 3107 3107 3106
3173 3175 3177 3179 3178 3177 3176 3172 3173 3169 3175 3172 3170 3170 3170 3169 3168 3165 3163 3160 3157 3153 3149 3146 3142 3139 3135 3130 3127 3123 3121 3117 3111 3108 3104 3104 3101 3099 3095 3093 3094 3093 3093
3172 3172 3174 3175 3174 3173 3170 3169 3167 3170 3169 3169 3167 3166 3166 3166 3163 3160 3158 3155 3151 3148 3144 3141 3137 3130 3127 3121 3118 3114 3110 3106 3102 3098 3094 3090 3088 3087 3085 3081 3081 3081 3078
3170 3170 3170 3172 3171 3169 3168 3164 3166 3166 3167 3166 3165 3163 3163 3161 3158 3155 3152 3149 3146 3141 3137 3134 3128 3123 3117 3110 3106 3101 3097 3094 3091 3087 3083 3080 3075 3071 3069 3067 3065 3065 3062
3168 3167 3167 3167 3166 3165 3165 3164 3165 3164 3163 3162 3162 3160 3159 3156 3153 3149 3145 3142 3138 3134 3130 3124 3118 3111 3106 3100 3096 3092 3089 3084 3079 3077 3074 3071 3067 3062 3059 3054 3051 3048 3047
3163 3163 3163 3163 3163 3163 3161 3163 3162 3160 3159 3159 3158 3156 3153 3150 3146 3142 3139 3134 3131 3125 3118 3113 3107 3102 3097 3090 3084 3082 3078 3078 3074 3063 3059 3058 3053 3049 3047 3043 3040 3037 3034
3159 3160 3160 3160 3160 3159 3160 3159 3157 3155 3155 3154 3152 3149 3146 3142 3138 3134 3130 3125 3120 3115 3109 3102 3096 3091 3084 3082 3074 3070 3066 3064 3058 3057 3049 3045 3040 3038 3035 3032 3028 3025 3021
3157 3157 3157 3157 3157 3156 3155 3154 3153 3152 3150 3148 3145 3142 3138 3134 3130 3125 3121 3116 3111 3106 3099 3093 3087 3081 3075 3070 3065 3060 3054 3050 3045 3040 3038 3034 3030 3028 3025 3021 3016 3014 3010
3153 3154 3155 3154 3153 3152 3151 3150 3148 3146 3143 3141 3139 3135 3131 3126 3123 3118 3113 3107 3101 3095 3088 3082 3076 3071 3065 3059 3054 3049 3044 3041 3038 3033 3026 3026 3023 3018 3012 3008 3005 3003 3000
3150 3150 3149 3149 3149 3148 3146 3144 3142 3141 3139 3136 3133 3129 3124 3119 3113 3108 3103 3097 3090 3084 3077 3072 3065 3058 3051 3046 3043 3039 3035 3033 3030 3025 3021 3016 3012 3010 3003 2999 2994 2991 2989
Wind_Speed
22 21 20 19 16 13 11 9 7 5 4 3 3 6 10 13 8 8 9 10 10 11 11 11 11 11 10 9 8 7 7 6 5 4 5 9 11 12 12 11 9 10 10
24 22 21 19 16 14 12 8 5 4 3 3 4 8 11 7 7 9 9 10 10 11 11 12 12 11 10 9 7 6 6 6 5 6 6 7 11 11 11 11 8 9 9
21 20 20 19 17 13 10 7 4 3 2 3 7 9 5 6 7 7 8 9 10 11 11 11 11 11 10 9 8 7 6 6 6 5 5 5 8 9 9 11 10 9 11
18 15 19 19 16 13 10 5 4 3 2 5 7 4 5 6 6 8 9 10 11 11 12 12 12 12 11 11 11 10 9 7 6 5 5 6 8 8 9 11 10 10 12
18 21 18 17 16 13 8 4 4 1 4 4 3 4 5 6 8 9 10 10 11 13 14 14 14 13 12 12 11 12 13 11 8 7 6 6 7 7 9 10 11 10 13
21 21 18 16 15 11 7 4 2 2 1 4 4 4 6 8 9 9 10 11 12 13 14 15 15 14 13 12 12 12 12 13 12 10 9 8 9 9 10 11 11 12 13
23 21 18 17 13 9 6 4 1 0 5 6 6 8 8 9 9 10 11 11 11 12 14 15 15 15 14 13 12 11 11 11 11 11 12 12 11 12 13 14 14 14 13
23 21 18 15 13 9 6 3 2 6 7 8 10 8 9 9 9 9 10 11 12 13 13 14 16 17 16 16 16 14 12 11 10 10 10 12 13 13 15 17 17 17 17
24 21 17 14 11 8 5 4 7 9 9 11 9 8 7 6 6 6 7 9 13 15 16 17 18 18 18 17 15 15 15 14 12 11 12 13 13 13 13 15 18 19 19
23 18 15 13 10 6 5 8 11 11 13 11 9 6 4 3 4 5 7 10 13 16 16 18 20 19 18 16 15 15 15 15 14 13 14 14 16 17 16 15 16 17 18
20 17 14 11 7 7 10 11 12 13 13 10 7 4 1 1 3 5 8 10 14 15 18 20 21 19 17 15 16 17 18 19 18 17 17 17 18 19 20 20 20 20 20
17 15 12 10 9 11 12 12 14 15 13 9 6 4 3 4 5 6 8 11 13 16 19 22 24 24 21 20 21 19 20 20 21 21 23 23 22 22 24 24 24 23 23
14 12 10 11 12 13 14 15 16 15 12 9 7 6 7 7 7 8 10 12 14 17 20 23 26 28 26 24 23 23 22 22 23 25 26 24 25 25 24 25 26 28 27
11 11 12 14 15 17 18 19 17 15 12 10 9 9 10 10 10 11 12 14 16 18 21 25 29 31 29 29 29 30 30 27 28 29 33 29 30 29 30 30 29 29 30
15 13 12 13 15 17 19 17 14 13 11 11 12 13 11 12 14 14 15 18 20 24 27 28 32 33 34 34 34 36 36 36 35 35 37 37 34 33 33 33 35 36 37
15 14 12 12 14 15 16 15 14 12 10 13 16 18 14 12 16 18 20 22 25 30 35 33 33 33 33 40 41 41 41 43 43 43 42 43 41 37 35 35 35 37 39
14 13 12 12 13 14 16 17 14 7 7 11 14 26 22 16 18 21 24 26 31 36 35 39 38 38 41 42 44 45 47 48 49 47 45 44 45 45 41 40 40 39 39
15 13 13 14 15 20 25 25 20 10 12 9 16 17 17 19 22 22 28 29 37 35 38 38 41 42 45 48 47 48 47 45 48 47 47 44 45 45 48 49 45 45 46
18 17 18 20 21 22 27 30 28 9 11 11 12 16 18 21 24 28 33 35 35 37 39 41 43 46 47 49 48 48 47 46 47 48 48 49 49 48 48 52 50 47 49
18 19 20 20 21 22 19 15 11 6 10 11 13 15 17 23 26 28 32 35 36 38 41 42 44 46 46 49 48 50 51 51 50 50 50 51 52 55 53 53 54 52 53
20 20 20 17 14 6 4 3 5 6 8 9 12 16 19 24 29 31 33 35 36 39 41 44 45 47 49 51 50 50 51 52 52 51 51 49 52 56 56 58 56 57 56
22 22 20 13 6 7 3 8 5 2 4 8 11 17 21 25 28 31 33 36 38 41 44 45 47 49 49 51 53 50 49 42 33 34 49 49 51 52 49 50 52 52 53
10 10 8 2 5 5 6 4 3 4 8 12 18 24 26 28 31 34 36 38 41 42 44 46 48 48 50 47 49 48 45 38 44 43 42 37 45 44 45 45 48 50 51
8 8 4 4 5 7 7 6 9 11 15 19 24 28 31 32 34 36 38 39 41 42 44 45 47 48 48 47 46 43 44 42 38 35 30 28 31 36 36 38 43 42 45
7 3 8 11 11 11 12 13 15 18 21 24 29 32 32 34 35 36 38 39 41 43 45 46 46 46 46 45 41 38 35 31 27 24 29 30 35 33 33 41 41 41 41
7 11 16 13 11 16 16 17 19 22 25 29 34 33 34 35 36 38 40 42 43 43 44 45 45 45 42 40 35 31 28 23 26 27 28 30 36 36 32 36 35 32 35
Wind_Direction
171 166 166 156 146 147 139 131 122 108 104 96 68 16 357 349 16 59 51 41 33 30 28 26 22 19 19 23 31 26 22 13 358 337 309 282 269 271 278 277 274 269 267
168 169 167 151 151 147 139 130 110 92 94 76 23 353 350 16 61 46 34 31 33 32 31 28 24 18 12 6 360 354 342 333 334 328 321 289 270 270 279 278 273 273 269
164 167 173 155 152 145 140 128 97 93 83 27 354 349 17 64 51 41 40 43 43 41 37 32 25 18 8 356 350 344 338 329 323 321 317 292 289 269 266 268 258 258 266
165 188 176 159 151 149 144 130 109 104 32 348 349 39 72 56 48 54 52 50 46 41 36 29 21 15 5 354 345 336 330 319 315 312 292 282 278 264 257 258 251 257 279
180 185 175 165 152 154 149 135 117 76 347 345 99 101 75 66 68 62 52 43 38 35 31 27 19 13 8 1 353 344 336 326 319 310 297 289 282 270 255 261 267 261 297
180 178 173 161 155 158 151 148 134 329 313 140 117 91 93 87 69 60 51 42 36 29 25 24 21 19 16 10 2 355 351 340 328 315 303 290 279 269 264 260 264 276 281
173 172 168 161 160 161 163 156 236 209 143 133 126 117 100 89 77 62 53 42 32 23 18 15 12 8 5 3 358 357 352 350 349 334 321 305 291 281 275 268 267 272 273
170 172 166 161 165 166 170 196 189 148 150 143 133 121 105 84 69 61 50 39 26 19 10 9 5 359 355 353 351 355 351 341 341 340 335 320 312 301 291 285 279 276 274
165 170 164 164 167 174 192 187 162 161 156 146 139 120 99 79 63 43 31 22 16 10 6 2 357 351 345 344 346 347 345 346 339 332 324 320 319 315 307 298 294 289 284
161 162 165 166 169 187 196 170 166 164 156 152 141 132 111 74 35 7 1 3 5 358 354 351 347 341 338 334 328 326 329 329 331 328 323 319 315 314 312 307 301 296 291
160 158 164 168 172 176 173 172 168 163 158 161 162 153 127 339 337 331 335 344 351 349 338 336 336 334 331 331 324 321 323 325 323 315 309 310 306 302 303 306 304 300 297
153 159 170 175 176 176 173 168 166 166 170 177 190 208 243 264 289 306 321 331 337 336 330 325 325 328 322 321 323 315 316 316 316 315 311 308 305 300 291 288 291 293 293
157 170 181 187 184 173 170 172 171 174 183 196 218 241 260 272 287 303 318 323 321 321 322 320 319 320 319 314 326 326 321 320 317 316 314 315 312 305 296 290 288 287 287
169 176 184 185 178 177 174 177 177 186 202 220 239 257 268 281 294 303 308 309 309 309 311 312 316 311 322 315 313 322 319 316 313 312 310 310 307 302 298 293 290 288 287
152 159 167 177 179 182 180 182 189 205 226 246 262 269 271 286 293 298 300 300 303 307 307 311 313 309 299 314 311 313 313 311 310 308 307 305 304 299 293 290 289 287 284
166 170 173 179 186 191 189 197 207 217 251 272 273 270 265 280 293 294 296 298 303 314 308 302 312 306 302 306 309 309 308 308 307 308 308 307 306 302 293 288 285 281 281
188 195 196 201 202 201 204 208 201 233 257 317 284 262 279 276 284 292 292 294 302 305 302 301 306 305 305 304 304 306 307 307 306 307 305 304 303 302 298 294 292 288 283
206 217 232 239 233 225 225 213 190 322 303 254 243 256 275 284 285 291 294 295 298 300 303 305 305 304 303 302 303 304 303 302 302 303 302 301 300 298 297 294 291 288 286
221 233 244 256 263 267 246 231 343 291 275 253 257 274 286 290 289 295 296 296 299 299 301 301 300 300 301 302 304 304 304 305 305 305 303 302 299 296 293 289 287 284 281
235 246 255 268 283 285 298 236 325 262 270 270 277 290 293 293 295 295 295 295 297 299 297 297 299 301 302 304 307 308 308 307 305 303 301 299 298 295 293 291 288 285 281
248 259 264 275 271 296 278 258 275 273 275 296 302 302 298 294 294 296 298 300 301 299 301 303 304 306 308 306 307 306 306 305 301 298 294 292 289 287 287 286 286 284 282
258 260 259 258 258 265 285 257 249 279 314 310 306 305 306 306 305 303 301 302 304 305 306 306 306 306 306 306 304 304 303 297 301 286 297 291 289 286 286 285 284 282 281
222 222 217 251 261 252 241 254 280 306 297 304 315 318 312 308 305 304 305 306 307 306 305 304 305 305 304 304 303 303 302 296 290 290 288 293 287 285 285 282 281 281 279
190 199 262 317 282 264 285 289 296 300 310 317 316 314 311 309 308 307 307 305 304 304 304 304 304 305 304 304 304 303 301 299 299 296 291 295 298 294 286 282 282 280 277
217 269 320 296 284 287 293 301 307 309 311 313 313 313 309 309 307 305 305 306 306 306 308 307 307 306 306 305 305 302 300 298 296 297 299 302 298 301 297 295 291 288 285
246 296 301 296 284 293 293 306 311 306 302 305 310 310 308 308 309 310 309 310 312 312 311 310 309 311 311 311 310 310 305 301 302 300 300 302 303 301 298 300 299 295 294